Orlando, FL

4:29 PM EST on November 22, 2017 (GMT -0500)
Executive

Weather History for KORL - September, 2013

Change the Weather History Date:

Wednesday, September 25, 2013

  Actual Average Record
Temperature  
Mean Temperature 77 °F -  
Max Temperature 82 °F 85 °F 93 °F (2017)
Min Temperature 73 °F 71 °F 66 °F (2008)
Cooling Degree Days 12    
Growing Degree Days 27 (Base 50)    
Moisture  
Dew Point 72 °F    
Average Humidity 85    
Maximum Humidity 96    
Minimum Humidity 69    
Precipitation  
Precipitation 0.01 in - - ()
Sea Level Pressure  
Sea Level Pressure 29.84 in    
Wind  
Wind Speed 8 mph (WSW)    
Max Wind Speed 15 mph    
Max Gust Speed 21 mph    
Visibility 10 miles    
Events Rain    
Averages and records for this station are not official NWS values.
T = Trace of Precipitation, MM = Missing Value Source: NWS Daily Summary

Daily Weather History Graph

Daily Weather History Graph

Search for Another Location

Airport or City:

Trip Planner

Search our weather history database for the weather conditions in past years. The results will help you decide how hot, cold, wet, or windy it might be!

Date:

Astronomy

Sep. 25, 2013 Rise Set
Actual Time 7:15 AM EDT 7:17 PM EDT
Civil Twilight 6:51 AM EDT 7:41 PM EDT
Nautical Twilight 6:24 AM EDT 8:08 PM EDT
Astronomical Twilight 5:56 AM EDT 8:36 PM EDT
Moon 11:48 PM EDT (9/25) 12:54 PM EDT (9/25)
Length of Visible Light 12h 49m
Length of Day
12h 02m
Waning Gibbous, 64% of the Moon is Illuminated
Sep 25
Waning Gibbous
Sep 26
Last Quarter
Oct 4
New
Oct 11
First Quarter
Oct 18
Full

Hourly Weather History & Observations

Time (EDT) Temp. Heat Index Dew Point Humidity Pressure Visibility Wind Dir Wind Speed Gust Speed Precip Events Conditions
12:53 AM 75.0 °F - 73.9 °F 96% 29.86 in 10.0 mi SW 5.8 mph - N/A   Partly Cloudy
1:11 AM 75.2 °F - 73.4 °F 94% 29.85 in 10.0 mi WSW 5.8 mph - N/A   Mostly Cloudy
1:42 AM 75.2 °F - 73.4 °F 94% 29.85 in 10.0 mi WSW 9.2 mph - N/A   Overcast
1:53 AM 75.9 °F - 73.9 °F 94% 29.85 in 10.0 mi WSW 8.1 mph - N/A   Overcast
2:53 AM 75.9 °F - 73.9 °F 94% 29.83 in 10.0 mi WSW 10.4 mph - N/A   Mostly Cloudy
3:35 AM 75.2 °F - 73.4 °F 94% 29.82 in 10.0 mi WSW 10.4 mph - N/A   Scattered Clouds
3:53 AM 75.0 °F - 73.0 °F 94% 29.83 in 10.0 mi West 9.2 mph - N/A   Clear
4:53 AM 75.0 °F - 71.1 °F 87% 29.82 in 10.0 mi WSW 8.1 mph - N/A   Clear
5:53 AM 75.0 °F - 71.1 °F 87% 29.83 in 10.0 mi West 10.4 mph - 0.00 in   Scattered Clouds
6:53 AM 73.9 °F - 71.1 °F 91% 29.83 in 10.0 mi WSW 3.5 mph - 0.01 in   Scattered Clouds
7:53 AM 75.0 °F - 70.0 °F 84% 29.86 in 10.0 mi West 11.5 mph - N/A   Clear
8:53 AM 73.9 °F - 70.0 °F 87% 29.86 in 10.0 mi West 10.4 mph 20.7 mph 0.00 in Rain Light Rain
9:53 AM 73.9 °F - 70.0 °F 87% 29.83 in 10.0 mi SW 15.0 mph - 0.00 in   Mostly Cloudy
10:53 AM 75.9 °F - 69.1 °F 79% 29.83 in 10.0 mi SW 15.0 mph - 0.00 in   Mostly Cloudy
11:53 AM 75.0 °F - 69.1 °F 82% 29.87 in 10.0 mi NW 8.1 mph - N/A   Scattered Clouds
12:53 PM 77.0 °F - 69.1 °F 76% 29.86 in 10.0 mi West 10.4 mph - N/A   Partly Cloudy
1:53 PM 77.0 °F - 69.1 °F 76% 29.85 in 10.0 mi West 12.7 mph 18.4 mph N/A   Partly Cloudy
2:53 PM 79.0 °F - 69.1 °F 72% 29.82 in 10.0 mi WSW 11.5 mph - N/A   Scattered Clouds
3:53 PM 80.1 °F 83.2 °F 70.0 °F 71% 29.81 in 10.0 mi West 9.2 mph - N/A   Scattered Clouds
4:53 PM 81.0 °F 84.4 °F 70.0 °F 69% 29.81 in 10.0 mi WSW 10.4 mph - N/A   Overcast
5:53 PM 80.1 °F 83.6 °F 71.1 °F 74% 29.81 in 10.0 mi WSW 6.9 mph - N/A   Partly Cloudy
6:46 PM 78.8 °F - 71.6 °F 78% 29.81 in 10.0 mi WSW 6.9 mph - N/A   Mostly Cloudy
6:53 PM 79.0 °F - 71.1 °F 77% 29.82 in 10.0 mi WSW 9.2 mph - N/A   Mostly Cloudy
7:53 PM 78.1 °F - 72.0 °F 81% 29.83 in 10.0 mi WSW 9.2 mph - N/A   Scattered Clouds
8:53 PM 77.0 °F - 72.0 °F 84% 29.83 in 10.0 mi SW 4.6 mph - N/A   Clear
9:12 PM 77.0 °F - 73.4 °F 89% 29.83 in 10.0 mi SW 3.5 mph - N/A   Mostly Cloudy
9:53 PM 78.1 °F - 73.0 °F 84% 29.84 in 10.0 mi SSW 5.8 mph - N/A   Overcast
10:53 PM 77.0 °F - 73.0 °F 88% 29.85 in 10.0 mi SW 5.8 mph - N/A   Overcast
11:02 PM 77.0 °F - 73.4 °F 89% 29.83 in 10.0 mi SW 6.9 mph - N/A   Overcast
11:10 PM 77.0 °F - 73.4 °F 89% 29.83 in 10.0 mi SSW 6.9 mph - N/A   Mostly Cloudy
11:20 PM 77.0 °F - 73.4 °F 89% 29.84 in 10.0 mi SW 6.9 mph - N/A   Mostly Cloudy
11:28 PM 77.0 °F - 73.4 °F 89% 29.84 in 10.0 mi SSW 5.8 mph - N/A   Mostly Cloudy
11:53 PM 75.9 °F - 73.0 °F 91% 29.84 in 10.0 mi South 9.2 mph - N/A   Mostly Cloudy